This is the latest recevied weather packets stored in our database for station/object KD2DXJ. If no packets are shown the sender has not sent any weather packets the latest 10 day(s).
| Time | Temp. | Humidity | Pressure | Rain* | Wind** | Luminosity | Snow |
|---|---|---|---|---|---|---|---|
| 1777464610 | 13.33° C | 74% | 1012.2 hPa | 0 mm | - | 77 W/m² | - |
| 1777464307 | 13.33° C | 73% | 1012 hPa | 0 mm | - | 64 W/m² | - |
| 1777464002 | 13.33° C | 73% | 1012 hPa | 0 mm | - | 54 W/m² | - |
| 1777463697 | 13.33° C | 74% | 1012 hPa | 0 mm | - | 46 W/m² | - |
| 1777463392 | 13.33° C | 74% | 1012.1 hPa | 0 mm | - | 31 W/m² | - |
| 1777463089 | 13.33° C | 74% | 1012.3 hPa | 0 mm | - | 26 W/m² | - |
| 1777462785 | 13.33° C | 73% | 1012.3 hPa | 0 mm | - | 21 W/m² | - |
| 1777462480 | 13.33° C | 73% | 1012.2 hPa | 0 mm | - | 21 W/m² | - |
| 1777462177 | 13.33° C | 73% | 1012.2 hPa | 0 mm | - | 35 W/m² | - |
| 1777461873 | 13.33° C | 73% | 1012.2 hPa | 0 mm | - | 28 W/m² | - |
| 1777461570 | 13.33° C | 73% | 1012.1 hPa | 0 mm | - | 36 W/m² | - |
| 1777461266 | 13.33° C | 74% | 1012.3 hPa | 0 mm | - | 48 W/m² | - |
| 1777460961 | 12.78° C | 74% | 1012.4 hPa | 0 mm | - | 36 W/m² | - |
| 1777460657 | 12.78° C | 75% | 1012.1 hPa | 0 mm | - | 33 W/m² | - |
| 1777460353 | 12.78° C | 75% | 1012.1 hPa | 0 mm | - | 24 W/m² | - |
| 1777460049 | 12.78° C | 75% | 1012.4 hPa | 0 mm | - | 19 W/m² | - |
| 1777459746 | 12.78° C | 75% | 1012.1 hPa | 0 mm | - | 20 W/m² | - |
| 1777459443 | 12.78° C | 75% | 1012.2 hPa | 0 mm | - | 17 W/m² | - |
| 1777459141 | 12.78° C | 77% | 1011.9 hPa | 0 mm | - | 26 W/m² | - |
| 1777458838 | 12.22° C | 78% | 1012 hPa | 0 mm | - | 22 W/m² | - |
| 1777458534 | 12.22° C | 79% | 1012.1 hPa | 0 mm | - | 11 W/m² | - |
| 1777458231 | 12.22° C | 79% | 1012.3 hPa | 0 mm | - | 9 W/m² | - |
| 1777457926 | 12.22° C | 78% | 1012.4 hPa | 0 mm | - | 5 W/m² | - |
| 1777457623 | 12.22° C | 78% | 1012.4 hPa | 0 mm | - | 2 W/m² | - |
| 1777457323 | 12.22° C | 79% | 1012.3 hPa | 0 mm | - | 2 W/m² | - |
* Rain latest hour (hover to see other rain measurements)
** Current wind speed in m/s (hover to see current wind gust speed)